Temperature
17 17 17 18 18 18 19 20 21 20 20 19 19 20 19 18 17 15 14 14 14 14 14 14 14 14 14 14 14 14 14 14 14 14 14 14 14 14 14 14 14 14 14 14 14 15 15 15 15
17 17 17 18 18 18 19 20 20 19 19 19 19 19 19 17 16 14 14 13 13 13 13 13 13 14 14 14 14 14 14 14 14 14 14 14 14 14 14 14 14 14 14 14 14 14 14 14 14
17 17 18 18 19 19 19 19 19 18 18 19 19 18 17 16 15 14 13 13 13 13 13 13 13 13 13 13 13 14 14 14 14 14 14 14 14 14 14 14 14 14 14 14 14 14 14 14 14
16 17 18 18 18 19 19 19 18 18 18 18 18 17 16 15 14 13 13 13 13 13 13 13 13 13 13 13 13 13 13 13 14 14 14 14 14 14 14 14 14 14 14 14 14 14 14 14 14
16 18 18 17 18 18 18 19 19 18 18 18 18 17 15 14 13 13 13 12 12 12 12 13 13 13 13 13 13 13 13 13 13 13 13 13 13 13 14 14 14 14 14 14 14 14 14 14 14
17 18 17 17 18 18 18 18 18 18 18 17 17 16 14 13 13 13 12 12 12 12 12 12 12 13 13 13 13 13 13 13 13 13 13 13 13 13 13 13 13 13 13 13 13 13 13 13 14
17 17 17 18 18 18 18 18 18 17 17 17 17 16 14 13 13 12 12 12 12 12 12 12 12 12 12 12 12 12 13 13 13 13 13 13 13 13 13 13 13 13 13 13 13 13 13 13 13
16 17 18 18 18 18 18 17 17 17 17 16 16 15 14 13 12 12 12 12 12 11 12 12 12 12 12 12 12 12 12 12 12 12 13 13 13 13 13 13 13 13 13 13 13 13 13 13 13
16 16 16 18 18 17 17 17 16 16 16 15 15 14 14 13 12 12 12 11 11 11 11 11 12 12 12 12 11 12 12 12 12 12 12 12 12 12 12 12 12 12 12 12 12 12 12 12 12
16 15 17 17 17 17 16 16 16 15 15 15 14 13 13 12 12 11 11 11 11 11 11 11 11 11 11 11 11 11 11 11 11 11 11 11 11 12 12 12 12 12 12 12 12 12 12 12 12
16 15 16 16 16 16 16 15 15 15 14 15 14 13 13 12 11 11 11 11 11 11 11 11 11 11 11 11 11 11 11 11 11 11 11 11 11 11 11 11 11 11 11 12 12 12 12 12 12
15 15 16 15 15 15 15 15 15 15 14 14 14 13 12 12 11 11 11 11 11 11 11 11 11 11 11 11 11 11 11 11 11 11 11 11 11 11 11 11 11 11 11 11 11 11 11 11 11
15 15 15 14 14 14 14 14 14 14 14 14 13 13 12 11 11 11 11 11 11 11 11 10 10 10 10 10 10 10 10 10 10 10 10 10 11 10 11 11 11 10 10 11 11 11 11 11 11
15 14 14 14 14 13 13 13 13 13 13 13 13 12 12 11 11 11 11 10 10 10 10 10 10 10 10 10 10 10 10 10 10 10 10 10 10 10 10 10 10 10 10 10 10 10 10 10 10
14 13 13 14 14 13 13 12 13 13 13 13 13 12 12 11 11 11 10 10 10 10 10 10 10 10 10 10 10 10 10 10 9 10 10 10 10 10 10 10 10 10 10 10 10 10 10 10 10
14 13 13 14 14 13 12 12 14 14 13 13 13 12 12 11 11 11 10 10 10 10 10 10 10 10 10 9 9 9 9 9 9 9 9 9 9 9 9 9 9 9 9 9 9 9 10 10 9
13 13 14 14 14 13 12 12 14 14 13 13 13 13 12 12 11 11 10 10 10 10 10 10 9 9 9 9 9 9 9 9 9 9 9 9 9 9 9 9 9 9 9 9 9 9 9 9 9
13 14 15 14 14 13 12 12 13 13 13 13 13 13 12 12 11 11 10 10 10 10 9 9 9 9 9 9 9 9 9 9 8 8 8 8 9 9 9 8 9 9 9 9 9 9 9 9 9
14 14 14 14 14 13 12 12 13 13 13 13 13 13 12 12 11 10 10 10 9 9 9 9 9 9 9 8 8 8 8 8 8 8 8 8 8 8 8 8 8 8 8 8 8 8 8 8 8
14 13 13 13 13 13 12 12 13 13 13 13 13 13 12 12 11 10 10 9 9 9 9 9 9 8 8 8 8 8 8 8 8 8 8 8 8 8 8 8 8 8 8 8 8 8 8 8 8
13 13 13 13 13 12 11 11 12 13 14 13 13 13 12 12 11 10 9 9 9 9 9 8 8 8 8 8 8 8 8 7 7 8 8 8 7 7 8 8 7 8 8 8 8 7 8 7 7
12 12 12 12 11 10 11 9 12 13 12 12 12 12 12 11 10 10 9 9 9 9 8 8 8 8 8 8 7 7 7 7 7 7 7 7 7 7 7 7 7 7 7 7 7 7 7 7 7
11 12 12 11 11 10 11 10 10 13 12 12 12 12 12 11 10 10 9 9 8 8 8 8 8 8 8 7 7 7 7 7 7 7 7 7 7 7 7 7 7 7 7 7 7 7 7 7 7
11 11 11 11 10 9 10 10 10 12 12 12 12 12 11 11 10 9 9 8 8 8 8 8 8 7 7 7 7 7 7 7 7 6 7 7 7 7 6 6 6 6 6 7 7 6 6 6 6
10 9 9 9 8 9 11 10 10 13 13 13 12 11 11 10 9 9 8 8 8 8 7 7 7 7 7 7 7 7 7 7 6 6 6 6 6 6 6 6 6 6 6 6 6 6 6 6 6
9 10 9 9 9 10 10 9 11 12 12 12 12 11 10 9 9 8 8 8 8 7 7 7 7 7 7 7 7 6 6 6 6 6 6 6 6 6 6 6 6 6 6 6 6 6 6 6 5
9 9 10 9 9 9 10 11 12 11 10 10 10 10 10 9 9 8 8 7 7 7 7 7 7 7 6 6 6 6 6 6 6 6 6 6 6 6 6 6 6 6 5 5 5 5 5 5 5
9 9 8 8 8 9 11 11 10 10 10 9 9 9 10 9 8 8 7 7 7 7 7 7 6 6 6 6 6 6 6 6 6 6 6 5 5 5 5 5 5 5 5 5 5 5 5 5 5
7 8 8 8 9 8 9 10 12 11 10 9 9 10 9 9 8 8 7 7 7 7 6 6 6 6 6 6 6 6 5 5 5 5 5 5 5 5 5 5 5 5 5 5 5 4 4 4 4
8 8 8 7 7 8 8 8 11 10 10 9 9 9 9 8 8 7 7 6 6 6 6 6 6 6 6 6 6 5 5 5 5 5 5 5 5 5 5 5 4 4 4 4 4 4 4 4 4
Wind_Speed
15 12 6 3 3 3 3 1 3 3 5 5 6 5 5 7 6 6 3 5 5 5 7 7 7 7 6 5 5 4 3 4 4 3 4 4 4 4 5 5 5 5 5 6 7 8 9 10 10
12 7 4 3 3 4 3 3 4 4 5 3 3 4 4 6 7 6 4 4 5 6 7 7 7 7 6 6 5 5 4 3 3 3 3 3 3 4 4 4 5 5 5 6 7 8 9 9 9
9 7 3 3 2 2 2 5 7 7 6 2 3 4 4 5 6 4 4 4 5 6 7 8 7 7 6 5 5 4 3 3 2 2 3 3 3 3 3 4 4 4 5 6 7 7 8 9 9
5 3 3 2 2 2 4 6 6 6 4 2 2 4 5 6 4 5 5 4 4 5 8 7 7 6 6 5 5 4 3 2 2 2 2 3 3 3 4 4 4 5 6 6 6 7 7 8 8
3 3 3 2 3 2 4 5 4 3 4 2 1 3 5 6 8 7 4 4 4 5 7 6 6 5 5 4 4 4 2 2 2 3 3 2 2 3 3 4 4 5 6 6 6 7 7 7 8
3 3 3 4 4 4 3 3 2 2 3 3 1 2 4 7 7 5 4 3 4 5 6 5 4 4 4 3 3 3 3 2 2 3 3 2 2 3 3 4 5 5 5 6 6 6 6 7 7
3 2 2 3 2 3 4 3 2 2 2 2 1 1 5 7 6 4 3 3 4 5 5 4 4 3 3 2 2 2 2 2 2 2 2 3 3 3 3 4 4 5 5 6 6 6 6 6 6
4 2 3 2 3 2 4 4 2 1 1 3 2 0 3 5 4 3 3 3 3 4 4 3 3 4 3 2 0 1 1 1 1 1 2 2 3 3 3 4 5 5 6 6 6 6 6 6 5
3 2 2 1 2 3 6 4 2 2 2 2 2 3 4 6 5 2 2 2 2 2 2 3 3 3 3 2 1 1 1 1 0 1 1 2 2 3 3 5 6 6 6 5 4 5 6 6 5
2 1 1 4 3 4 4 3 3 3 3 3 3 3 5 5 3 2 1 0 1 1 1 2 2 2 3 2 2 0 0 1 0 1 0 1 2 2 3 6 6 6 6 5 4 5 6 5 5
1 1 2 4 5 3 2 2 1 3 4 3 4 4 5 4 2 2 1 0 1 0 1 1 2 2 2 2 1 1 1 1 1 1 1 1 2 2 3 4 5 5 5 4 4 4 5 4 4
1 1 0 1 3 1 2 2 3 4 3 1 2 3 4 3 3 2 1 1 1 0 0 0 1 2 1 1 1 1 1 1 1 1 1 2 2 2 1 2 3 4 3 3 3 2 3 4 4
3 2 1 1 2 1 2 3 4 4 4 2 3 3 4 4 3 2 1 1 1 0 0 0 1 1 1 1 1 1 1 1 1 1 1 2 1 1 1 1 2 2 3 3 2 1 2 2 3
1 1 1 3 3 3 4 5 5 6 5 5 6 6 5 5 4 3 2 1 1 1 0 1 1 1 0 0 0 0 0 0 1 1 1 0 1 1 1 1 1 2 3 3 3 2 1 2 3
2 1 4 6 6 4 4 7 9 8 6 7 7 6 6 5 4 4 3 2 2 1 1 1 1 0 0 0 0 0 1 1 0 1 1 1 1 1 2 1 1 1 2 3 3 3 3 2 2
5 5 4 6 7 6 5 7 6 7 8 8 7 7 6 6 5 4 3 2 2 1 1 1 1 0 0 0 0 0 1 1 1 1 1 1 1 1 1 1 0 1 2 2 2 2 3 2 2
6 6 6 5 8 6 7 7 3 6 7 8 7 7 7 6 5 4 3 3 2 1 0 1 1 1 0 0 0 0 1 1 1 1 1 1 1 2 1 1 1 2 2 1 2 2 3 3 2
5 6 5 5 7 7 8 9 5 7 8 8 7 7 7 6 6 4 4 3 2 1 1 0 1 1 1 0 0 0 0 0 1 1 1 1 1 2 2 1 2 2 2 1 2 4 3 2 2
6 7 7 4 2 5 9 11 9 8 8 8 8 7 7 6 5 5 4 3 3 2 1 0 1 1 1 0 1 1 1 1 0 0 1 1 1 2 2 1 1 2 2 2 3 4 4 2 2
7 8 7 3 3 5 8 12 11 9 10 9 8 7 7 6 5 5 5 4 3 3 2 1 1 2 1 0 1 1 1 1 1 0 0 1 1 1 2 2 2 2 2 2 3 4 2 1 2
8 8 6 5 4 6 6 9 10 7 7 7 7 6 7 7 7 6 5 4 3 2 2 1 1 2 2 2 1 0 0 0 0 1 1 1 1 1 1 2 2 2 2 3 3 4 4 3 1
7 3 5 5 5 5 5 5 6 6 8 8 8 7 6 6 6 6 5 4 3 2 1 1 2 2 2 3 2 2 2 1 1 1 1 0 1 2 2 2 2 2 2 3 3 2 2 4 3
3 3 5 6 6 6 6 5 7 5 7 8 8 8 6 6 6 6 5 4 3 2 2 1 2 2 2 3 3 3 2 1 1 1 1 0 0 1 2 2 2 2 2 3 3 3 3 2 3
2 3 5 5 4 6 8 7 6 4 7 7 7 7 7 6 5 5 5 4 3 2 2 2 2 2 3 3 3 3 3 2 2 2 2 1 0 1 2 2 2 2 2 3 4 3 4 3 3
3 2 2 3 5 7 5 6 7 2 3 5 7 7 6 5 4 4 4 4 3 3 2 2 2 2 2 3 3 3 3 3 3 3 2 2 1 1 2 2 2 2 2 3 3 3 3 4 4
5 5 4 4 4 3 3 7 4 3 4 5 6 6 5 4 4 4 4 4 3 3 3 2 2 2 2 3 3 3 3 3 3 3 3 2 2 2 2 3 3 3 3 3 3 3 3 3 3
3 5 4 3 5 5 6 5 2 4 4 4 4 4 4 4 3 3 3 3 3 4 3 3 3 2 2 2 2 3 3 3 3 3 3 2 2 2 2 3 3 3 3 3 4 3 3 3 3
4 3 1 3 4 5 6 6 4 4 4 3 3 3 3 3 3 3 2 2 3 3 3 3 3 3 2 2 2 2 2 3 3 3 3 3 3 2 3 3 3 3 4 4 4 3 3 4 3
3 3 4 4 4 4 4 3 1 4 5 4 3 3 2 2 2 2 2 2 2 2 3 3 3 2 2 1 1 2 2 3 3 3 3 3 3 3 3 3 3 3 3 4 4 4 4 4 3
3 4 3 3 5 4 4 5 3 5 5 3 2 1 1 2 2 2 2 1 1 2 2 3 3 2 2 2 2 2 2 3 3 3 3 3 3 3 3 3 3 3 3 3 4 4 4 4 4
Wind_Direction
300 271 252 257 240 227 218 178 75 70 59 41 24 24 36 35 34 94 104 49 68 82 84 80 69 67 60 56 59 70 89 98 101 107 110 107 108 104 104 105 101 103 109 107 109 110 109 108 107
296 283 255 240 236 224 205 151 115 71 71 69 47 33 59 71 65 92 80 42 58 76 84 84 70 66 61 55 59 63 75 92 105 110 111 118 118 113 109 108 103 103 112 108 106 112 111 110 110
277 269 258 240 244 256 111 82 92 86 75 60 76 40 37 62 67 73 68 56 58 67 77 85 79 69 62 56 53 58 62 75 89 113 114 122 124 124 126 122 118 124 122 113 106 110 115 115 115
279 243 245 248 246 16 72 88 89 111 97 59 100 96 82 54 61 72 75 62 66 64 69 83 84 71 62 53 46 45 55 70 81 100 108 109 115 126 131 128 126 129 131 121 114 113 119 120 119
246 251 219 211 226 82 73 81 99 131 131 107 59 103 91 75 72 75 74 67 66 66 68 76 76 67 60 52 41 37 58 72 87 97 96 94 104 119 124 127 129 133 131 125 121 121 120 125 125
260 247 225 211 180 135 121 110 117 134 122 117 104 123 98 92 76 66 55 56 60 67 69 75 72 70 64 56 40 31 31 70 81 88 86 87 104 115 126 134 134 136 136 132 128 126 117 124 129
278 271 241 224 167 149 140 121 142 163 150 108 26 106 119 92 80 72 55 47 55 61 66 64 66 67 65 64 55 39 23 38 69 86 88 102 100 102 120 131 132 130 130 127 132 134 126 122 129
310 295 238 215 185 170 118 112 72 28 58 71 45 86 119 106 91 83 75 55 53 57 60 50 44 40 37 36 82 79 53 28 56 94 100 117 118 111 116 122 124 127 127 124 132 137 130 126 129
282 263 241 238 168 128 124 136 124 56 23 91 82 41 84 112 105 89 81 59 51 49 51 37 31 30 22 356 327 171 175 235 173 146 173 183 158 143 140 134 131 130 130 134 141 148 143 140 145
269 245 355 18 45 98 130 152 156 166 196 193 154 120 119 120 121 134 121 61 32 26 32 35 23 16 5 349 4 68 89 93 71 76 153 154 120 119 140 140 136 138 140 151 157 162 162 154 151
248 235 48 30 44 73 121 166 227 205 224 214 179 149 130 132 155 183 194 235 267 305 18 24 2 3 355 359 352 2 71 95 55 45 352 82 109 109 117 134 139 138 141 144 158 166 171 160 152
207 309 13 43 59 100 178 200 242 231 244 28 114 135 150 167 191 202 219 233 275 340 198 329 351 341 340 7 357 6 45 89 65 35 13 41 72 81 96 99 137 148 146 137 142 164 161 149 146
205 204 119 112 123 206 241 245 255 247 230 198 165 163 179 190 205 198 200 244 224 244 220 255 308 299 338 20 357 30 35 57 83 60 18 23 49 114 105 115 122 142 143 151 158 137 133 144 129
114 121 192 193 193 216 230 238 237 233 208 200 193 190 194 200 204 198 191 225 256 253 244 238 247 270 344 87 226 137 88 77 143 149 175 102 37 55 91 83 83 112 145 161 157 140 126 108 108
133 191 227 215 203 198 228 244 226 217 195 201 202 196 196 199 203 198 197 213 223 233 244 244 236 169 50 156 267 28 116 131 113 143 164 136 102 69 82 79 49 87 150 156 133 118 111 109 105
211 214 222 195 188 171 197 255 215 179 189 205 202 199 201 200 198 186 178 192 194 183 233 235 249 174 157 76 318 10 108 111 102 132 137 115 114 122 102 124 94 76 116 115 136 138 124 116 107
213 230 223 191 185 178 209 254 191 165 194 212 209 203 202 198 192 179 167 168 173 169 177 241 177 155 167 18 315 66 109 111 114 137 132 148 152 169 154 153 165 139 97 119 150 130 125 126 116
228 242 248 219 183 199 223 247 231 196 205 217 214 209 204 198 192 170 160 160 154 143 114 293 160 146 127 121 18 93 112 121 113 127 134 149 167 178 157 139 152 133 121 126 126 120 103 119 126
293 283 276 277 165 217 241 253 249 218 216 219 216 213 207 198 170 146 147 153 140 123 122 193 145 140 122 159 193 199 205 208 180 100 133 157 177 182 150 155 134 138 142 147 135 124 115 112 111
274 273 274 282 208 232 262 265 256 230 218 214 212 211 204 180 163 158 156 159 155 153 158 153 144 157 156 186 219 221 195 200 200 342 175 172 161 169 167 160 153 139 136 139 143 129 130 146 138
255 258 269 276 282 249 272 280 243 223 205 199 206 203 195 181 174 169 167 165 156 154 155 184 188 172 167 166 153 182 81 111 176 249 227 200 159 162 162 166 157 158 148 156 155 148 147 165 184
266 289 284 278 276 262 207 279 258 207 192 198 200 197 188 167 162 161 163 161 158 156 159 208 203 182 179 167 165 190 204 210 224 215 228 233 165 171 172 178 171 175 161 157 162 147 135 153 171
284 326 290 271 264 276 237 244 271 199 199 199 190 188 179 165 163 163 163 166 155 147 170 210 218 202 193 182 183 198 207 211 177 143 145 175 180 175 175 182 178 177 164 158 156 154 153 156 166
280 280 264 253 251 258 226 215 264 214 203 184 179 175 167 161 159 157 154 150 151 153 173 198 216 217 202 193 189 198 202 190 157 158 179 189 191 187 181 170 174 171 160 163 166 165 165 169 166
232 235 261 235 220 240 202 211 246 223 147 157 157 156 155 155 155 156 152 156 166 172 186 206 210 221 210 201 192 199 203 187 182 183 188 184 183 198 198 175 171 164 161 157 157 157 164 172 173
229 233 224 240 245 262 201 224 243 107 89 103 117 128 138 145 158 166 163 169 181 187 193 205 211 222 212 204 195 197 197 195 195 194 188 190 190 198 197 178 174 170 166 163 156 158 168 167 171
233 236 277 290 290 274 242 227 181 96 96 104 122 128 141 148 161 170 164 173 185 192 198 207 211 215 209 206 194 199 194 194 199 199 185 179 174 180 180 184 179 177 172 169 164 171 174 174 178
280 295 250 223 244 259 252 232 217 181 182 167 156 158 155 151 168 166 167 180 188 189 197 203 202 209 204 194 202 206 191 190 195 188 186 175 174 177 170 181 181 183 180 173 171 174 175 179 191
206 247 242 250 252 250 268 265 73 128 134 139 155 154 147 155 171 178 185 185 190 186 190 199 198 193 195 197 200 197 195 195 192 183 184 175 169 168 174 174 175 183 185 176 173 180 174 179 190
224 225 213 234 260 256 266 270 32 73 84 76 53 83 143 150 154 164 165 161 189 203 207 202 196 191 200 198 190 195 190 187 191 188 183 172 171 171 173 168 177 189 193 181 176 182 181 185 193
Height
1495 1496 1498 1501 1503 1505 1503 1498 1494 1497 1499 1503 1503 1503 1506 1510 1513 1523 1523 1521 1520 1520 1520 1520 1520 1520 1521 1522 1522 1523 1523 1524 1525 1526 1527 1528 1528 1529 1530 1531 1532 1532 1533 1534 1535 1536 1537 1538 1539
1495 1497 1500 1501 1503 1508 1503 1496 1497 1500 1503 1505 1506 1506 1508 1512 1516 1519 1520 1520 1520 1520 1520 1520 1520 1520 1521 1521 1522 1523 1523 1524 1524 1525 1526 1527 1528 1529 1530 1531 1531 1532 1533 1534 1535 1536 1537 1538 1539
1496 1498 1501 1499 1500 1502 1501 1497 1498 1502 1504 1506 1507 1509 1511 1515 1517 1519 1519 1519 1520 1520 1519 1519 1520 1520 1520 1521 1521 1522 1523 1523 1524 1525 1526 1527 1528 1529 1529 1530 1531 1532 1533 1534 1535 1536 1537 1538 1539
1498 1500 1500 1501 1502 1498 1497 1499 1500 1503 1506 1507 1508 1511 1514 1517 1518 1518 1518 1519 1519 1519 1519 1519 1519 1519 1520 1520 1521 1521 1522 1523 1523 1524 1525 1526 1527 1528 1529 1530 1531 1532 1533 1534 1535 1536 1537 1538 1539
1498 1499 1500 1503 1500 1499 1498 1500 1501 1503 1506 1508 1509 1511 1515 1517 1517 1518 1518 1519 1519 1519 1518 1518 1519 1519 1519 1520 1520 1520 1521 1522 1522 1523 1524 1525 1526 1527 1528 1529 1530 1531 1532 1533 1535 1536 1537 1538 1539
1499 1497 1502 1504 1500 1499 1500 1501 1503 1504 1506 1508 1510 1512 1515 1517 1517 1517 1518 1518 1518 1518 1518 1518 1518 1518 1518 1519 1519 1519 1520 1521 1521 1522 1523 1523 1524 1525 1527 1528 1529 1530 1531 1533 1534 1536 1537 1538 1539
1499 1497 1499 1498 1499 1500 1500 1502 1503 1505 1506 1508 1510 1511 1514 1515 1516 1516 1517 1517 1517 1517 1517 1517 1517 1517 1517 1518 1518 1518 1519 1519 1520 1521 1522 1523 1523 1524 1526 1527 1528 1529 1531 1532 1533 1535 1536 1537 1539
1498 1498 1496 1496 1498 1500 1500 1502 1504 1506 1507 1509 1510 1511 1513 1515 1515 1516 1516 1516 1516 1516 1516 1516 1516 1516 1516 1516 1517 1517 1517 1518 1519 1520 1520 1521 1522 1523 1524 1525 1527 1528 1529 1531 1533 1534 1535 1536 1538
1498 1501 1500 1495 1496 1499 1500 1503 1505 1507 1508 1509 1510 1511 1512 1513 1514 1515 1515 1515 1515 1515 1514 1514 1514 1514 1514 1515 1515 1515 1516 1516 1517 1518 1519 1520 1521 1522 1523 1524 1525 1526 1528 1529 1531 1533 1534 1536 1537
1498 1502 1498 1495 1494 1497 1501 1503 1505 1506 1507 1508 1510 1511 1512 1512 1513 1513 1513 1513 1513 1513 1513 1513 1513 1513 1513 1513 1513 1514 1514 1515 1515 1516 1517 1518 1519 1520 1521 1522 1524 1525 1526 1528 1529 1531 1533 1534 1536
1498 1499 1498 1498 1498 1499 1502 1504 1505 1505 1506 1507 1508 1509 1510 1511 1511 1512 1512 1512 1512 1511 1511 1511 1511 1511 1511 1511 1511 1512 1512 1513 1514 1515 1516 1516 1517 1518 1519 1520 1522 1523 1525 1526 1528 1529 1531 1533 1535
1498 1498 1499 1500 1500 1502 1503 1504 1504 1504 1505 1505 1506 1507 1508 1509 1510 1510 1510 1510 1510 1510 1509 1509 1509 1509 1509 1509 1509 1510 1510 1511 1512 1513 1514 1514 1515 1516 1517 1519 1520 1522 1523 1524 1526 1527 1530 1532 1533
1498 1499 1500 1501 1502 1503 1503 1504 1504 1503 1503 1504 1504 1505 1506 1507 1508 1508 1509 1509 1508 1508 1507 1507 1507 1507 1507 1507 1508 1508 1509 1509 1510 1511 1512 1512 1513 1514 1515 1517 1518 1520 1521 1523 1524 1526 1527 1530 1532
1498 1499 1500 1501 1501 1502 1503 1502 1503 1499 1500 1501 1502 1503 1504 1505 1505 1506 1506 1506 1506 1506 1505 1505 1505 1505 1505 1505 1505 1506 1506 1507 1508 1509 1510 1511 1511 1512 1513 1514 1515 1517 1519 1521 1522 1523 1525 1527 1529
1499 1501 1500 1499 1499 1500 1502 1501 1497 1496 1498 1499 1499 1501 1502 1502 1503 1503 1503 1504 1504 1504 1503 1503 1503 1503 1503 1503 1503 1504 1504 1505 1506 1507 1507 1508 1509 1510 1511 1512 1513 1515 1517 1518 1520 1521 1523 1525 1527
1498 1500 1500 1495 1496 1498 1503 1500 1490 1492 1494 1495 1497 1498 1499 1500 1501 1501 1501 1501 1501 1501 1501 1501 1501 1500 1500 1501 1501 1502 1502 1503 1503 1504 1505 1505 1506 1508 1508 1510 1511 1513 1514 1516 1517 1519 1521 1523 1525
1497 1498 1494 1493 1492 1494 1498 1495 1489 1489 1491 1492 1494 1495 1496 1497 1498 1498 1499 1499 1499 1499 1498 1498 1498 1498 1498 1498 1499 1500 1500 1501 1501 1502 1503 1503 1504 1505 1506 1507 1508 1510 1512 1514 1515 1517 1518 1520 1522
1495 1492 1488 1489 1489 1491 1494 1491 1487 1487 1488 1488 1490 1491 1492 1493 1494 1495 1496 1496 1496 1496 1496 1496 1496 1496 1496 1496 1497 1497 1498 1499 1499 1500 1500 1501 1501 1502 1503 1504 1505 1507 1509 1511 1513 1514 1516 1518 1521
1488 1488 1489 1487 1487 1490 1490 1487 1484 1483 1484 1484 1485 1487 1488 1490 1491 1492 1493 1493 1494 1494 1494 1494 1494 1494 1494 1494 1494 1494 1495 1496 1497 1497 1498 1499 1499 1500 1501 1501 1503 1505 1506 1509 1511 1512 1514 1516 1518
1490 1490 1489 1487 1486 1488 1487 1483 1478 1476 1477 1478 1480 1482 1484 1486 1488 1489 1490 1491 1491 1491 1491 1491 1492 1492 1492 1492 1492 1493 1493 1494 1495 1495 1496 1496 1497 1497 1498 1499 1501 1502 1504 1506 1508 1509 1512 1514 1516
1490 1491 1489 1489 1487 1486 1489 1484 1474 1470 1471 1474 1476 1478 1480 1482 1484 1486 1487 1488 1489 1489 1489 1489 1489 1489 1490 1490 1491 1491 1491 1492 1492 1493 1493 1494 1494 1495 1496 1497 1498 1500 1502 1503 1505 1507 1509 1511 1513
1491 1488 1488 1489 1493 1492 1488 1495 1472 1467 1468 1470 1472 1474 1476 1479 1481 1482 1484 1485 1486 1486 1487 1487 1488 1487 1487 1488 1489 1489 1489 1489 1489 1490 1490 1491 1492 1493 1494 1495 1496 1497 1499 1501 1503 1505 1506 1508 1510
1489 1488 1488 1489 1491 1492 1486 1492 1477 1464 1467 1467 1468 1470 1473 1476 1478 1479 1481 1482 1483 1484 1484 1485 1485 1485 1485 1486 1486 1487 1487 1487 1488 1488 1488 1489 1490 1490 1491 1492 1493 1495 1496 1498 1500 1502 1504 1506 1508
1489 1490 1489 1488 1492 1496 1483 1487 1477 1466 1461 1462 1464 1467 1470 1473 1475 1477 1479 1480 1480 1481 1482 1482 1482 1482 1483 1483 1484 1484 1485 1485 1485 1485 1486 1486 1487 1488 1489 1490 1491 1492 1494 1495 1497 1499 1501 1503 1506
1491 1495 1499 1496 1497 1490 1475 1478 1473 1457 1455 1458 1461 1464 1468 1471 1473 1474 1476 1476 1477 1478 1478 1479 1479 1479 1480 1480 1481 1482 1482 1482 1483 1483 1484 1484 1485 1485 1486 1487 1488 1490 1491 1493 1495 1497 1499 1501 1503
1491 1491 1497 1497 1490 1481 1475 1477 1466 1456 1456 1457 1460 1463 1466 1469 1471 1472 1473 1474 1474 1475 1476 1476 1476 1476 1476 1477 1477 1479 1480 1480 1480 1481 1481 1481 1482 1483 1484 1485 1486 1487 1489 1490 1492 1494 1496 1498 1500
1488 1489 1485 1489 1484 1483 1475 1463 1458 1456 1457 1459 1461 1463 1465 1467 1469 1470 1471 1471 1472 1472 1473 1473 1473 1473 1474 1474 1475 1476 1476 1477 1477 1478 1479 1479 1480 1480 1481 1482 1483 1485 1486 1487 1489 1491 1493 1495 1497
1488 1486 1489 1491 1489 1483 1468 1463 1464 1459 1459 1459 1461 1462 1464 1466 1467 1468 1468 1469 1469 1469 1470 1470 1471 1471 1471 1471 1472 1473 1473 1474 1475 1475 1476 1476 1477 1478 1479 1479 1481 1482 1483 1485 1486 1488 1490 1492 1493
1489 1489 1487 1486 1483 1484 1477 1468 1451 1452 1455 1458 1460 1461 1463 1464 1465 1465 1466 1466 1467 1467 1467 1468 1468 1468 1468 1469 1469 1470 1470 1471 1472 1472 1473 1474 1474 1475 1476 1476 1478 1479 1480 1482 1483 1485 1487 1488 1490
1483 1484 1486 1492 1486 1480 1479 1474 1453 1453 1455 1458 1459 1460 1461 1462 1463 1464 1464 1464 1464 1464 1464 1465 1465 1465 1465 1466 1466 1467 1467 1468 1468 1469 1470 1471 1472 1473 1473 1474 1475 1476 1478 1479 1480 1482 1483 1485 1486